Погода в Средигорном

Казахстан     49°30′38″N   84°23′22″E
темп.,
°C
ветер,
м/с
пор.,
м/с
влажн.,
%
обл.,
%
осадки,
мм/ч
давл.,
гПа
погр.,
м
8 августа, пн
пн800:00+16юв33465 0.0 100714
03:00+14вюв115965 0.0 100711
06:00+15в116035 0.0 100711
09:00+22сз113698 0.0 1007598
12:00+27зсз2423100 0.0 10062299
15:00+29зсз56195 0.0 10052738
18:00+27зсз54225 0.0 10041210
21:00+16зюз11510 0.0 100711
9 августа, вт
вт900:00+15ююв115183 0.0 100711
03:00+13всв1156100 0.0 100811
06:00+15св115258 0.0 100811
09:00+23ссв1130100 0.0 1007469
12:00+28зсз3421100 0.0 10061923
15:00+29сз34205 0.0 10052676
18:00+29сз232194 0.0 10042230
21:00+19сз1150100 0.0 100611
10 августа, ср
ср1000:00+18в2245100 0.0 100611
03:00+14всв1166100 0.0 100611
06:00+16всв1168100 0.0 100711
09:00+23ю2241100 0.1 1007292
12:00+25ююз8735100 0.1 10081311
15:00+22ююв2248100 0.0 100844
18:00+21ю1154100 0.0 100718
21:00+19з1153100 0.0 100811
11 августа, чт
чт1100:00+19ю225299 0.0 100915
03:00+13ююз11769 0.0 100811
06:00+15всв11720 0.0 100911
09:00+22ююв014612 0.0 1009583
12:00+28юз5823100 0.0 10073155
15:00+28з992234 0.0 10053084
18:00+23ссз45405 0.0 1007593
21:00+14всв11746 0.6 100911
12 августа, пт
пт1200:00+12ссв11743 0.6 100911
03:00+11св118033 0.0 101010
06:00+13св118166 0.0 101110
09:00+19с11560 0.0 1010468
12:00+25зсз23310 0.0 10081891
15:00+28з64234 0.0 10072990
18:00+26з54267 0.0 10061783
21:00+16зюз115712 0.0 100811